COSMOS 2251 DEB, 33792

Orbit data source: Space-Track

COSMOS 2251 DEB, 33792 is space debris in LEO originally from a launch on Wed, 16 Jun 1993 UTC launched from the Plesetsk Missile And Space Complex (PKMTR). The debris from Iridium 33, an American commercial communications satellite, has been tracked extensively since its accidental collision with the defunct Russian satellite Cosmos 2251 in 2009. This event, occurring at high speed in low Earth orbit (LEO), generated thousands of pieces of space debris, significantly increasing the risk of further collisions. The Iridium 33 debris cloud has impacted space traffic management and orbital debris mitigation strategies, making it a subject of ongoing study in space situational awareness.

Loading next visibility...
Identifier
33792, 1993-036AH
Orbit
LEO
Country
Flag of CISCIS
Related business
Manufacturer
Unknown
Mission
Spacecraft
Bus & Motor
Unknown
Mass
Unknown
Launch date (UTC)
1993-06-16 (33 years ago)
Launch vehicle
Unknown
Launch site
Plesetsk Missile And Space Complex (PKMTR)
Object type
Payload
Rocket body
Debris
Shape & HBR
Unknown shape, 0.2 m
Radar Cross Section
Medium (>0.1 m² and <1 m²)

Expand to show TLE details & history
Last TLE update: 18 hours ago

TLE from 18 hours ago
0 COSMOS 2251 DEB
1 33792U 93036AH  26169.11752890  .00000673  00000-0  65731-3 0  9993
2 33792  73.8996  45.9914 0430487  77.6381  70.2772 13.46158747849639
Epoch: 2026-06-18T02:49Z
TLE epoch observation values (Epoch: 2026-06-18T02:49:14.496Z)
Latitude
26.24403°
Longitude
-90.8229°
Altitude
993.273 km
Speed
7.405 km/s
True Right ascension
14h 31m 24s
True Declination
26° 06' 44"
Sunlit
Object was in daylight at epoch
Visualization orbit readout
Latitude
Unknown
Longitude
Unknown
Altitude
Unknown
Speed
Unknown
Apparent Right ascension
Unknown
Apparent Declination
Unknown
Sunlit
N/A
Visualization observer readout
Local Sidereal Time
07:54:41
Azimuth
Unknown
Elevation
Unknown
Doppler factor
Unknown
Orbital elements
Apogee altitude
1,405.396 km
Perigee altitude
762.912 km
Semi-major axis
7,462.291 km
Eccentricity
0.04305
Inclination
73.8996°
RAAN
45.9914°
Arg. of periapsis
77.6381°
True anomaly
75.00128°
Mean anomaly
70.2772°
Eccentric anomaly
72.63124°
Mean motion
3.36694 °/min
Orbital period
106.92 mins
BSTAR
0.00065731
Loading maneuver chart data...
Computing Atmospheric mass density...
Loading historical data...
Loading historical data...
Loading historical data...
Loading historical data...
Loading historical data...
Loading historical data...
Loading historical data...

Documentation

Showing up to 5 results
|